Monterey, CA

4:34 AM PST on December 11, 2016 (GMT -0800)
Monterey Peninsula

Weather History for KMRY - December, 2011

Change the Weather History Date:

Wednesday, December 7, 2011

  Actual Average Record
Temperature  
Mean Temperature 47 °F 52 °F  
Max Temperature 58 °F 61 °F 70 °F (2006)
Min Temperature 35 °F 43 °F 34 °F (2009)
Degree Days  
Heating Degree Days 18    
Month to date heating degree days 95  
Since 1 July heating degree days 1006  
Cooling Degree Days 0    
Month to date cooling degree days 0  
Year to date cooling degree days 33  
Moisture  
Dew Point 30 °F    
Average Humidity 55    
Maximum Humidity 76    
Minimum Humidity 33    
Precipitation  
Precipitation 0.00 in - 0.58 in (2004)
Month to date precipitation 0.00  
Year to date precipitation 16.39  
Since 1 July precipitation 3.60  
Sea Level Pressure  
Sea Level Pressure 30.27 in    
Wind  
Wind Speed 4 mph (ESE)    
Max Wind Speed 9 mph    
Max Gust Speed 10 mph    
Visibility 10 miles    
Events      
T = Trace of Precipitation, MM = Missing Value Source: NWS Daily Summary

Daily Weather History Graph

Daily Weather History Graph

Search for Another Location

Airport or City:

Trip Planner

Search our weather history database for the weather conditions in past years. The results will help you decide how hot, cold, wet, or windy it might be!

Date:

Astronomy

Dec. 07, 2011 Rise Set
Actual Time 7:06 AM PST 4:51 PM PST
Civil Twilight 6:37 AM PST 5:20 PM PST
Nautical Twilight 6:05 AM PST 5:52 PM PST
Astronomical Twilight 5:33 AM PST 6:23 PM PST
Moon 2:54 PM PST (12/7) 4:28 AM PST (12/7)
Length of Visible Light 10h 42m
Length of Day
9h 45m
Waxing Gibbous, 93% of the Moon is Illuminated
Dec 7
Waxing Gibbous
Dec 10
Full
Dec 17
Last Quarter
Dec 24
New
Dec 31
First Quarter

Hourly Weather History & Observations

Time (PST) Temp. Windchill Dew Point Humidity Pressure Visibility Wind Dir Wind Speed Gust Speed Precip Events Conditions
12:54 AM 41.0 °F 38.0 °F 24.1 °F 51% 30.37 in 10.0 mi East 4.6 mph - N/A   Clear
1:54 AM 39.9 °F 33.9 °F 24.1 °F 53% 30.35 in 10.0 mi East 9.2 mph - N/A   Clear
2:54 AM 39.9 °F 35.1 °F 24.1 °F 53% 30.34 in 10.0 mi ESE 6.9 mph - N/A   Clear
3:54 AM 39.0 °F - 24.1 °F 55% 30.32 in 10.0 mi Calm Calm - N/A   Clear
4:54 AM 37.4 °F 33.8 °F 24.8 °F 60% 30.27 in 10.0 mi East 4.6 mph - N/A   Clear
5:54 AM 36.0 °F 32.1 °F 24.1 °F 62% 30.32 in 10.0 mi East 4.6 mph - N/A   Clear
6:54 AM 36.0 °F 33.3 °F 24.1 °F 62% 30.32 in 10.0 mi East 3.5 mph - N/A   Clear
7:54 AM 37.0 °F 34.5 °F 25.0 °F 62% 30.32 in 10.0 mi East 3.5 mph - N/A   Clear
8:54 AM 45.0 °F - 27.0 °F 49% 30.32 in 10.0 mi Calm Calm - N/A   Clear
9:54 AM 50.0 °F - 27.0 °F 41% 30.32 in 10.0 mi Calm Calm - N/A   Clear
10:54 AM 53.1 °F - 30.9 °F 43% 30.30 in 10.0 mi WSW 4.6 mph - N/A   Clear
11:54 AM 57.9 °F - 28.0 °F 32% 30.27 in 10.0 mi WNW 3.5 mph - N/A   Clear
12:54 PM 55.9 °F - 32.0 °F 40% 30.25 in 10.0 mi West 5.8 mph - N/A   Clear
1:54 PM 55.0 °F - 32.0 °F 42% 30.23 in 10.0 mi WNW 6.9 mph - N/A   Clear
2:54 PM 54.0 °F - 39.9 °F 59% 30.23 in 10.0 mi NW 4.6 mph - N/A   Clear
3:54 PM 54.0 °F - 42.1 °F 64% 30.22 in 10.0 mi NW 3.5 mph - N/A   Clear
4:54 PM 50.0 °F - 39.0 °F 66% 30.21 in 10.0 mi Calm Calm - N/A   Clear
5:54 PM 50.0 °F - 39.0 °F 66% 30.22 in 8.0 mi SW 4.6 mph - N/A   Clear
6:54 PM 46.9 °F - 39.0 °F 74% 30.21 in 8.0 mi SSE 4.6 mph - N/A   Clear
7:54 PM 46.9 °F - 39.9 °F 77% 30.20 in 10.0 mi SSE 4.6 mph - N/A   Clear
8:54 PM 43.0 °F 40.3 °F 32.0 °F 65% 30.19 in 10.0 mi East 4.6 mph - N/A   Clear
9:54 PM 39.0 °F 34.8 °F 30.0 °F 70% 30.19 in 10.0 mi East 5.8 mph - N/A   Clear
10:54 PM 39.0 °F 35.7 °F 30.0 °F 70% 30.20 in 10.0 mi East 4.6 mph - N/A   Clear
11:54 PM 37.9 °F 34.4 °F 28.9 °F 70% 30.20 in 10.0 mi East 4.6 mph - N/A   Clear